STOCKHOLM/ARLANDA current weather conditions

sailwx.info

Wind from 170 at 16 knots

Air temperature 7.0° C
Dewpoint 4.0° C

Last reported at 2016-Feb-07 13:20 UTC.
Time now 2016-Feb-07 15:08 UTC

Location: N 59°39' E 017°57'.
View on Google Maps.

See reports from other nearby stations

  
Tides and Currents Weather Stations Pressure Air Temp Water Temp Dewpoint Dewpoint Depression Visibility Wind Speed Wind Dir Waves Ship Positions
date/time (UTC)wind fromknots sea level pressurealtimeterstation pressurevisibilityair tempwater tempwave heightnotes
2016-Feb-07 14:20 170 12 6.0
2016-Feb-07 13:50 170 14 7.0
2016-Feb-07 13:20 170 16 7.0
2016-Feb-07 12:50 180 15 8.0
2016-Feb-07 12:20 180 14 8.0
2016-Feb-07 11:50 180 16 7.0
2016-Feb-07 11:20 180 15 7.0
2016-Feb-07 10:50 190 13 5.4 7.0
2016-Feb-07 10:20 180 11 5.4 7.0
2016-Feb-07 09:50 180 11 5.4 6.0
2016-Feb-07 09:20 190 11 5.4 6.0 Mist.
2016-Feb-07 08:50 180 11 5.4 5.0
2016-Feb-07 08:20 180 9 3.8 5.0 Mist.
2016-Feb-07 07:50 180 10 3.8 4.0 Mist.
2016-Feb-07 07:20 170 11 3.2 5.0 Mist.
2016-Feb-07 06:50 180 10 3.2 4.0 Mist.
2016-Feb-07 06:20 180 11 3.2 4.0 Mist.
2016-Feb-07 05:50 170 11 2.7 4.0 Mist.
2016-Feb-07 05:20 160 10 2.7 4.0 Mist.
2016-Feb-07 04:50 180 10 3.8 4.0 Mist.
2016-Feb-07 04:20 180 13 4.3 4.0 Mist.
2016-Feb-07 03:50 180 10 4.0
2016-Feb-07 03:20 170 9 5.4 5.0
2016-Feb-07 02:50 160 8 5.4 4.0
2016-Feb-07 02:20 160 8 5.4 5.0
2016-Feb-07 01:50 180 8 5.4 5.0
2016-Feb-07 01:20 190 8 5.4 5.0
2016-Feb-07 00:50 180 9 5.4 5.0
2016-Feb-07 00:20 190 10 5.4 5.0
2016-Feb-06 23:50 190 10 5.4 5.0
2016-Feb-06 23:20 200 10 5.4 5.0
2016-Feb-06 22:50 200 10 5.4 5.0
2016-Feb-06 22:20 200 11 5.4 5.0
2016-Feb-06 21:50 190 10 5.4 5.0
2016-Feb-06 21:20 200 10 5.4 5.0
2016-Feb-06 20:50 200 11 5.4 5.0
2016-Feb-06 20:20 210 9 5.4 5.0
2016-Feb-06 19:50 210 11 5.4 5.0
2016-Feb-06 19:20 220 10 5.4 5.0
2016-Feb-06 18:50 210 10 5.4 5.0
2016-Feb-06 18:20 210 10 5.4 5.0
2016-Feb-06 17:50 200 12 5.4 5.0 Light drizzle.
2016-Feb-06 17:20 200 11 5.4 5.0
2016-Feb-06 16:50 190 11 5.4 5.0
2016-Feb-06 16:20 180 13 5.4 4.0
2016-Feb-06 15:50 180 13 5.4 4.0
2016-Feb-06 15:20 170 13 5.4 4.0
2016-Feb-06 14:50 180 12 5.4 4.0
2016-Feb-06 14:20 180 11 5.4 4.0
2016-Feb-06 13:50 180 11 5.4 4.0
2016-Feb-06 13:20 190 12 5.4 4.0
2016-Feb-06 12:50 190 10 5.4 4.0
2016-Feb-06 12:20 190 10 5.4 3.0
2016-Feb-06 11:50 190 9 5.4 3.0
2016-Feb-06 11:20 190 9 5.4 3.0
2016-Feb-06 10:50 180 10 5.4 2.0
2016-Feb-06 10:20 180 10 5.4 2.0
2016-Feb-06 09:50 180 11 5.4 2.0
2016-Feb-06 09:20 180 11 2.7 2.0 Mist.
2016-Feb-06 08:50 190 11 4.3 2.0 Mist.
2016-Feb-06 07:20 180 12 2.7 1.0 Mist.
2016-Feb-06 06:50 180 11 1.6 1.0 Light drizzle snow.
2016-Feb-06 06:20 170 10 5.4 1.0
2016-Feb-06 05:50 170 12 5.4 1.0 Light snow.
2016-Feb-06 05:20 160 11 5.4-0.0 Light snow.
2016-Feb-06 04:50 150 9 5.4-1.0 Light snow.
2016-Feb-06 04:20 150 9 4.9-1.0 Light snow.
2016-Feb-06 03:50 150 9 3.8-2.0 Light snow.
2016-Feb-06 03:20 160 8 4.9-2.0 Light snow.
2016-Feb-06 02:50 170 7 5.4-2.0
2016-Feb-06 02:20 160 6 5.4-3.0
2016-Feb-06 01:50 160 8 5.4-3.0
2016-Feb-06 01:20 170 7 5.4-3.0
2016-Feb-06 00:50 160 7 -3.0
2016-Feb-06 00:20 160 6 -4.0
2016-Feb-05 23:50 160 4 -5.0
2016-Feb-05 23:20 170 5 -6.0
2016-Feb-05 22:50 170 5 -5.0
2016-Feb-05 22:20 180 6 -5.0
2016-Feb-05 21:50 180 6 -5.0
2016-Feb-05 21:20 190 5 -4.0
2016-Feb-05 20:50 210 5 -4.0
2016-Feb-05 20:20 200 5 -3.0
2016-Feb-05 19:50 200 5 -3.0
2016-Feb-05 19:20 230 5 -3.0
2016-Feb-05 18:50 230 4 -3.0
2016-Feb-05 18:20 250 5 -3.0
2016-Feb-05 17:50 240 5 -2.0
2016-Feb-05 17:20 220 6 -2.0
2016-Feb-05 16:50 250 6 -2.0
2016-Feb-05 16:20 250 6 -2.0
2016-Feb-05 15:50 230 6 -1.0
2016-Feb-05 15:20 240 5 -1.0